OK1FET-5 Weather Reports


time (UTC)temp
C
wind
direction
speed
KPH
gust
KPH
rain 1hr
cm
rain 24hr
cm
rain mn
cm
humidity
%
barometer
mb
20260504215024 17 287 3.2 8.0 0.00 0.00 0.00 44 1011.7
20260504214530 17 349 3.2 4.8 0.00 0.00 0.00 44 1011.8
20260504214035 17 34 3.2 4.8 0.00 0.00 0.00 44 1011.8
20260504213540 17 21 3.2 8.0 0.00 0.00 0.00 44 1011.9
20260504213046 17 355 3.2 6.4 0.00 0.00 0.00 44 1011.9
20260504212057 17 356 3.2 6.4 0.00 0.00 0.00 43 1012.0
20260504211602 17 343 3.2 4.8 0.00 0.00 0.00 44 1012.0
20260504211107 17 360 3.2 4.8 0.00 0.00 0.00 43 1012.1
20260504210613 17 354 3.2 4.8 0.00 0.00 0.00 43 1012.2
20260504210118 17 356 3.2 4.8 0.00 0.00 0.00 44 1012.2
20260504205623 17 3 3.2 4.8 0.00 0.00 0.00 43 1012.3
20260504205129 17 346 3.2 4.8 0.00 0.00 0.00 43 1012.4
20260504204634 17 335 3.2 4.8 0.00 0.00 0.00 43 1012.4
20260504204139 17 340 3.2 4.8 0.00 0.00 0.00 43 1012.4
20260504203645 17 345 3.2 4.8 0.00 0.00 0.00 43 1012.4
20260504202655 17 344 3.2 4.8 0.00 0.00 0.00 42 1012.5
20260504202201 17 339 3.2 4.8 0.00 0.00 0.00 41 1012.5
20260504201706 17 1 1.6 3.2 0.00 0.00 0.00 41 1012.4
20260504201211 18 352 3.2 6.4 0.00 0.00 0.00 41 1012.4
20260504200717 18 13 1.6 4.8 0.00 0.00 0.00 40 1012.4
20260504200222 18 348 3.2 6.4 0.00 0.00 0.00 40 1012.4
20260504195727 18 347 3.2 4.8 0.00 0.00 0.00 40 1012.3
20260504195232 18 350 3.2 6.4 0.00 0.00 0.00 39 1012.3
20260504194737 18 339 4.8 6.4 0.00 0.00 0.00 38 1012.3
20260504193748 19 9 4.8 6.4 0.00 0.00 0.00 37 1012.1
20260504193253 19 12 3.2 4.8 0.00 0.00 0.00 37 1012.2
20260504192758 19 37 3.2 4.8 0.00 0.00 0.00 37 1012.2
20260504191808 20 33 3.2 4.8 0.00 0.00 0.00 36 1012.0
20260504191314 20 51 4.8 8.0 0.00 0.00 0.00 36 1012.0
20260504190819 20 71 6.4 8.0 0.00 0.00 0.00 36 1011.9
20260504190324 20 54 4.8 8.0 0.00 0.00 0.00 36 1012.0
20260504185829 20 49 4.8 4.8 0.00 0.00 0.00 36 1012.0
20260504185334 20 41 4.8 6.4 0.00 0.00 0.00 36 1012.0
20260504184839 20 54 4.8 8.0 0.00 0.00 0.00 36 1011.9
20260504184344 20 55 4.8 6.4 0.00 0.00 0.00 35 1011.9
20260504183354 20 58 6.4 8.0 0.00 0.00 0.00 35 1011.8
20260504182859 20 57 4.8 6.4 0.00 0.00 0.00 35 1011.8
20260504182404 20 71 6.4 8.0 0.00 0.00 0.00 34 1011.8
20260504181909 20 62 4.8 6.4 0.00 0.00 0.00 34 1011.9
20260504181414 21 94 4.8 6.4 0.00 0.00 0.00 34 1011.8
20260504180424 21 93 4.8 6.4 0.00 0.00 0.00 34 1011.8
20260504175929 21 93 4.8 6.4 0.00 0.00 0.00 33 1011.9
20260504175434 21 93 4.8 6.4 0.00 0.00 0.00 34 1011.8
20260504174939 21 105 4.8 6.4 0.00 0.00 0.00 33 1011.8
20260504173949 21 97 4.8 4.8 0.00 0.00 0.00 33 1011.9
20260504173454 21 87 3.2 4.8 0.00 0.00 0.00 33 1011.8
20260504172959 21 102 3.2 4.8 0.00 0.00 0.00 33 1011.9
20260504172504 21 113 3.2 3.2 0.00 0.00 0.00 34 1011.8
20260504172009 21 159 3.2 3.2 0.00 0.00 0.00 34 1011.9
20260504171514 22 138 3.2 4.8 0.00 0.00 0.00 34 1011.9
20260504171019 22 158 3.2 4.8 0.00 0.00 0.00 34 1012.0
20260504170524 22 156 3.2 4.8 0.00 0.00 0.00 34 1012.0
20260504160127 22 138 6.4 8.0 0.00 0.00 0.00 34 1012.3
20260504150717 25 129 6.4 9.7 0.00 0.00 0.00 33 1012.4
20260504150221 25 129 9.7 12.9 0.00 0.00 0.00 33 1012.5
20260504141304 26 183 4.8 6.4 0.00 0.00 0.00 32 1012.9
20260504140809 26 198 3.2 3.2 0.00 0.00 0.00 33 1012.9
20260504140313 26 219 3.2 4.8 0.00 0.00 0.00 33 1012.9
20260504130405 25 165 6.4 11.3 0.00 0.00 0.00 34 1013.5
20260504110552 24 168 3.2 8.0 0.00 0.00 0.00 34 1014.3
20260504100144 28 298 3.2 6.4 0.00 0.00 0.00 35 1015.0
20260504081817 21 132 8.0 11.3 0.00 0.00 0.00 38 1015.0
20260504080826 22 111 3.2 6.4 0.00 0.00 0.00 39 1015.1
20260504080331 21 132 6.4 8.0 0.00 0.00 0.00 39 1015.1
20260504050640 12 141 1.6 4.8 0.00 0.00 0.00 45 1014.5
20260504050145 12 180 3.2 4.8 0.00 0.00 0.00 45 1014.5
20260504045652 12 184 1.6 4.8 0.00 0.00 0.00 45 1014.5
20260504045157 12 134 3.2 4.8 0.00 0.00 0.00 45 1014.4
20260504044702 12 128 3.2 4.8 0.00 0.00 0.00 45 1014.2
20260504044208 13 121 4.8 6.4 0.00 0.00 0.00 45 1014.1
20260504043714 13 96 6.4 8.0 0.00 0.00 0.00 44 1014.1
20260504043220 13 93 8.0 11.3 0.00 0.00 0.00 46 1014.1
20260504042725 12 90 9.7 12.9 0.00 0.00 0.00 48 1013.8
20260504042231 12 90 11.3 14.5 0.00 0.00 0.00 47 1013.8
20260504041736 12 87 11.3 12.9 0.00 0.00 0.00 48 1013.8
20260504041242 12 87 9.7 12.9 0.00 0.00 0.00 46 1013.9
20260504040748 12 93 9.7 12.9 0.00 0.00 0.00 46 1013.9
20260504035759 12 87 8.0 9.7 0.00 0.00 0.00 42 1014.1
20260504035305 12 80 8.0 11.3 0.00 0.00 0.00 42 1014.0
20260504034811 12 69 8.0 9.7 0.00 0.00 0.00 42 1014.1
20260504034316 12 66 8.0 9.7 0.00 0.00 0.00 42 1014.0
20260504033822 12 69 6.4 9.7 0.00 0.00 0.00 42 1014.0
20260504033328 12 72 6.4 9.7 0.00 0.00 0.00 43 1014.1
20260504032834 12 54 6.4 8.0 0.00 0.00 0.00 43 1014.1
20260504032339 12 51 4.8 4.8 0.00 0.00 0.00 43 1014.2
20260504031845 12 69 4.8 4.8 0.00 0.00 0.00 43 1014.2
20260504031351 12 55 6.4 8.0 0.00 0.00 0.00 42 1014.1
20260504030857 12 58 4.8 8.0 0.00 0.00 0.00 43 1014.1
20260504030403 12 54 6.4 8.0 0.00 0.00 0.00 43 1014.1
20260504025908 12 56 4.8 8.0 0.00 0.00 0.00 42 1014.0
20260504025414 12 46 6.4 6.4 0.00 0.00 0.00 43 1014.0
20260504024920 12 44 3.2 4.8 0.00 0.00 0.00 43 1014.2
20260504024425 12 331 3.2 4.8 0.00 0.00 0.00 43 1014.2
20260504023931 12 338 6.4 8.0 0.00 0.00 0.00 43 1014.3
20260504023436 12 327 6.4 6.4 0.00 0.00 0.00 43 1014.2
20260504022942 12 325 6.4 8.0 0.00 0.00 0.00 42 1014.2
20260504022448 12 23 1.6 3.2 0.00 0.00 0.00 42 1014.2
20260504021953 13 132 1.6 3.2 0.00 0.00 0.00 42 1014.1
20260504021459 13 145 3.2 3.2 0.00 0.00 0.00 42 1014.0
20260504021004 13 121 4.8 4.8 0.00 0.00 0.00 43 1014.0
20260504020510 13 116 4.8 4.8 0.00 0.00 0.00 42 1014.0
20260504020016 13 113 4.8 4.8 0.00 0.00 0.00 42 1014.0
20260504015521 13 117 4.8 6.4 0.00 0.00 0.00 42 1013.8
20260504015027 14 129 6.4 8.0 0.00 0.00 0.00 43 1013.8
20260504014532 14 125 4.8 6.4 0.00 0.00 0.00 43 1013.7
20260504014038 14 116 4.8 6.4 0.00 0.00 0.00 42 1013.7
20260504013544 14 94 4.8 6.4 0.00 0.00 0.00 42 1013.7
20260504013049 14 84 6.4 6.4 0.00 0.00 0.00 41 1013.7
20260504012555 14 90 6.4 8.0 0.00 0.00 0.00 40 1013.6
20260504012100 14 80 6.4 8.0 0.00 0.00 0.00 40 1013.6
20260504011606 14 63 4.8 6.4 0.00 0.00 0.00 41 1013.7
20260504011111 14 52 6.4 8.0 0.00 0.00 0.00 41 1013.6
20260504010617 14 77 8.0 8.0 0.00 0.00 0.00 40 1013.6
20260504010122 15 71 8.0 8.0 0.00 0.00 0.00 41 1013.7
20260504005628 15 83 8.0 11.3 0.00 0.00 0.00 40 1013.6
20260504005134 15 80 8.0 11.3 0.00 0.00 0.00 40 1013.5
20260504004639 15 90 9.7 12.9 0.00 0.00 0.00 42 1013.5
20260504004145 15 86 8.0 11.3 0.00 0.00 0.00 41 1013.5
20260504003650 15 87 9.7 11.3 0.00 0.00 0.00 41 1013.5
20260504003156 15 63 8.0 9.7 0.00 0.00 0.00 40 1013.7
20260504002701 15 63 6.4 8.0 0.00 0.00 0.00 40 1013.6
20260504002207 15 57 6.4 8.0 0.00 0.00 0.00 40 1013.6
20260504001712 15 46 6.4 8.0 0.00 0.00 0.00 40 1013.7
20260504001218 15 33 4.8 6.4 0.00 0.00 0.00 40 1013.6
20260504000723 15 49 6.4 8.0 0.00 0.00 0.00 40 1013.6
20260504000229 15 46 6.4 8.0 0.00 0.00 0.00 40 1013.5
20260503235240 15 68 6.4 8.0 0.00 0.00 0.00 39 1013.4
20260503234746 15 68 6.4 9.7 0.00 0.00 0.00 40 1013.4
20260503234252 15 47 6.4 8.0 0.00 0.00 0.00 39 1013.4
20260503233756 15 51 6.4 9.7 0.00 0.00 0.00 39 1013.4
20260503233302 15 44 6.4 8.0 0.00 0.00 0.00 39 1013.5
20260503232807 15 56 6.4 8.0 0.00 0.00 0.00 39 1013.4
20260503232313 16 41 6.4 9.7 0.00 0.00 0.00 39 1013.4
20260503231818 16 42 6.4 8.0 0.00 0.00 0.00 39 1013.4
20260503231323 16 57 8.0 11.3 0.00 0.00 0.00 38 1013.4
20260503230829 16 80 9.7 12.9 0.00 0.00 0.00 38 1013.3
20260503230335 16 75 8.0 12.9 0.00 0.00 0.00 39 1013.3
20260503225840 16 74 9.7 12.9 0.00 0.00 0.00 39 1013.3
20260503225345 16 85 9.7 16.1 0.00 0.00 0.00 39 1013.2
20260503224850 16 87 11.3 12.9 0.00 0.00 0.00 40 1013.1
20260503224356 16 90 11.3 14.5 0.00 0.00 0.00 42 1013.0
20260503223901 16 93 12.9 16.1 0.00 0.00 0.00 42 1012.9
20260503223407 16 93 11.3 14.5 0.00 0.00 0.00 43 1012.8
20260503222912 16 102 12.9 17.7 0.00 0.00 0.00 43 1012.8
20260503222417 16 93 12.9 16.1 0.00 0.00 0.00 42 1012.8
20260503221923 16 99 12.9 16.1 0.00 0.00 0.00 42 1012.7
20260503221428 17 96 14.5 16.1 0.00 0.00 0.00 42 1012.8
20260503220933 17 96 12.9 17.7 0.00 0.00 0.00 42 1012.6
20260503220439 17 90 11.3 12.9 0.00 0.00 0.00 41 1012.8
20260503215944 17 96 11.3 14.5 0.00 0.00 0.00 41 1012.8